Home   Weather   Sindelfingen   Past weeks

Flag for Germany Past Weather in Sindelfingen, Baden-Württemberg, Germany — Yesterday and Last 2 Weeks

Now
41 °F

Partly cloudy.


Feels Like: 41 °F
Forecast: 35 / 47 °F
Wind: 2 mph from North

Location: Stuttgart-Echterdingen

Current Time: Feb 20, 2017 at 12:22:11 am

Latest Report: Feb 19, 2017 at 11:50 pm


Visibility: N/A

Pressure: 30.21 "Hg

Humidity: 81%

Dew Point: 36 °F

Location of SindelfingenLocation

Past Weather in Sindelfingen — Graph

°F

Sindelfingen Temperature Yesterday

Maximum temperature yesterday: 48 °F (at 2:20 pm)
Minimum temperature yesterday: 27 °F (at 5:20 am)
Average temperature yesterday: 38 °F

High & Low Weather Summary for the Past Weeks

 TemperatureHumidityPressure
High59 °F (Feb 16, 2:50 pm)100% (Feb 5, 6:50 am)30.54 "Hg (Feb 5, 6:50 am)
Low23 °F (Feb 11, 5:20 am)47% (Feb 15, 3:50 pm)29.56 "Hg (Feb 5, 12:50 pm)
Average37 °F81%30.18 "Hg
* Reported Feb 4 11:20 pm — Feb 19 11:20 pm, Sindelfingen, Weather by CustomWeather, © 2017

Note: Actual official high and low records may vary slightly from our data, if they occured in-between our weather recording intervals... More about our weather records

Advertising

Sindelfingen Weather History for the Previous 24 Hours

Scroll right to see more
 ConditionsComfort  
Time TempWeatherWind HumidityBarometerVisibility
11:20 pm
Sun, Feb 19
41 °FPartly cloudy.2 mph81%30.21 "HgN/A
10:50 pm43 °FPassing clouds.3 mph76%30.18 "HgN/A
10:20 pm41 °FPassing clouds.2 mph81%30.18 "HgN/A
9:50 pm43 °FPassing clouds.3 mph76%30.18 "HgN/A
9:20 pm43 °FPassing clouds.9 mph76%30.18 "HgN/A
8:50 pm43 °FPassing clouds.5 mph76%30.18 "HgN/A
8:20 pm43 °FPassing clouds.5 mph71%30.18 "HgN/A
7:50 pm45 °FPassing clouds.3 mph66%30.18 "HgN/A
7:20 pm43 °FPassing clouds.5 mph71%30.18 "HgN/A
6:50 pm43 °FSprinkles. Partly cloudy.7 mph76%30.18 "HgN/A
6:20 pm45 °FPartly cloudy.3 mph71%30.18 "HgN/A
5:50 pm45 °FClear.3 mph66%30.15 "Hg10 mi
5:20 pm46 °FPassing clouds.7 mph62%30.15 "HgN/A
4:50 pm46 °FPassing clouds.7 mph62%30.15 "HgN/A
4:20 pm46 °FSunny.8 mph62%30.15 "Hg10 mi
3:50 pm48 °FPartly sunny.5 mph62%30.15 "HgN/A
3:20 pm48 °FPartly sunny.10 mph62%30.18 "HgN/A
2:50 pm48 °FBroken clouds.6 mph62%30.18 "HgN/A
2:20 pm48 °FBroken clouds.5 mph62%30.18 "HgN/A
1:50 pm46 °FBroken clouds.8 mph62%30.21 "HgN/A
1:20 pm46 °FBroken clouds.10 mph66%30.21 "HgN/A
12:50 pm46 °FBroken clouds.5 mph62%30.21 "HgN/A
12:20 pm46 °FScattered clouds.2 mph71%30.21 "HgN/A
11:50 am45 °FSunny.2 mph71%30.24 "Hg10 mi
11:20 am43 °FSunny.2 mph76%30.24 "Hg10 mi
10:50 am41 °FPassing clouds.3 mph81%30.24 "HgN/A
10:20 am39 °FSunny.2 mph81%30.24 "Hg10 mi
9:50 am36 °FClear.2 mph87%30.24 "Hg6 mi
9:20 am32 °FClear.1 mph100%30.24 "Hg5 mi
8:50 am30 °FClear.2 mph100%30.24 "Hg6 mi
8:20 am28 °FClear.2 mph100%30.21 "Hg6 mi
7:50 am27 °FLight fog.2 mph100%30.21 "Hg6 mi
7:20 am27 °FSleet. Overcast.1 mph100%30.21 "Hg4 mi
6:50 am27 °FChilly.2 mph100%30.21 "Hg5 mi
6:20 am28 °FFog.2 mph93%30.21 "Hg6 mi
5:50 am28 °FFog.1 mph93%30.24 "Hg6 mi
5:20 am27 °FClear.2 mph100%30.24 "Hg6 mi
4:50 am28 °FFog.1 mph93%30.24 "Hg6 mi
4:20 am28 °FFog.1 mph93%30.24 "Hg6 mi
3:50 am28 °FClear.1 mph100%30.24 "Hg6 mi
2:50 am28 °FClear.1 mph93%30.24 "Hg10 mi
2:20 am30 °FClear.2 mph93%30.27 "Hg10 mi
1:50 am30 °FClear.2 mph93%30.27 "Hg10 mi
1:20 am32 °FClear.1 mph93%30.27 "Hg10 mi
12:50 am32 °FPassing clouds.3 mph93%30.27 "HgN/A
12:20 am32 °FPassing clouds.3 mph93%30.27 "HgN/A
Weather by CustomWeather, © 2017

See weather overviewHow to use our weather pages